Flag for Japan Weather past 2 weeks in Niigata, Japan

50 °F

Sprinkles. Partly cloudy.

Feels Like: 46 °F
Forecast: 49 / 53 °F
Wind: 9 mph from South

Location: Niigata Airport

Current Time: Nov 26, 2015 at 5:52:35 PM

Latest Report: Nov 26, 2015 at 5:00 PM

Visibility: 5 mi

Pressure: 29.71 "Hg

Humidity: 88%

Dew point: 46 °F

Location of NiigataLocation

Historic Weather in Niigata — Graph


Niigata temperature yesterday

Maximum temperature yesterday: 48 °F (at 12:00 PM)
Minimum temperature yesterday: 41 °F (at 4:00 PM)
Average temperature yesterday: 43 °F

Past Weeks' High & Low Weather Summary

High66 °F (Nov 17, 11:00 AM)100% (Nov 15, 7:00 AM)30.51 "Hg (Nov 15, 7:00 AM)
Low41 °F (Nov 25, 4:00 PM)44% (Nov 12, 12:00 PM)29.65 "Hg (Nov 26, 9:00 AM)
Average55 °F73%30.14 "Hg
* Reported Nov 11 4:00 PM — Nov 26 4:45 PM, Niigata, Weather by CustomWeather, © 2015

Note: Actual official high and low records may vary slightly from our data, if they occured in-between our weather recording intervals... More about our weather records


Niigata weather history for previous 24 hours

Time TempWeatherWind HumidityBarometerVisibility
4:45 PM
Thu, Nov 26
50 °FSprinkles. Partly cloudy.8 mph88%29.71 "Hg5 mi
4:00 PM50 °FSprinkles. Partly sunny.8 mph94%29.71 "Hg4 mi
3:03 PM50 °FRain showers. Fog.10 mph94%29.71 "Hg2 mi
3:00 PM50 °FSprinkles. Fog.10 mph94%29.68 "Hg2 mi
2:00 PM50 °FSprinkles. Fog.9 mph94%29.68 "Hg3 mi
1:00 PM50 °FSprinkles. Broken clouds.15 mph88%29.68 "HgN/A
12:00 PM52 °FSprinkles. Broken clouds.18 mph77%29.65 "HgN/A
11:47 AM52 °FSprinkles. Broken clouds.18 mph77%29.68 "HgN/A
11:00 AM54 °FPartly sunny.15 mph63%29.68 "HgN/A
10:00 AM54 °FBroken clouds.10 mph63%29.65 "HgN/A
9:00 AM50 °FSprinkles. Broken clouds.15 mph67%29.65 "HgN/A
8:00 AM50 °FSprinkles. Broken clouds.16 mph67%29.68 "HgN/A
7:00 AM46 °FBroken clouds.6 mph76%29.71 "HgN/A
9:00 PM
Wed, Nov 25
41 °FLight rain. Partly cloudy.7 mph93%30.04 "Hg4 mi
8:00 PM41 °FLight rain. Partly cloudy.9 mph93%30.04 "Hg4 mi
7:00 PM41 °FLight rain. Partly cloudy.7 mph93%30.07 "Hg4 mi
6:00 PM41 °FLight rain. Partly cloudy.8 mph93%30.07 "Hg4 mi
5:00 PM41 °FLight rain. Passing clouds.8 mph93%30.07 "Hg5 mi
Weather by CustomWeather, © 2015

See weather overviewHow to use our weather pages